Flag for Austria Weather past 2 weeks in St. Pölten, Lower Austria, Austria

Now
63 °F

Scattered clouds.


Feels Like: 63 °F
Forecast: 44 / 74 °F
Wind: 8 mph from Northwest

Location: Tulln Airport

Current Time: Aug 27, 2014 at 7:33:46 PM

Latest Report: Aug 27, 2014 at 6:50 PM


Visibility: 19 mi

Pressure: 30.01 "Hg

Humidity: 68%

Dew point: 52 °F

Location of St. PöltenLocation

Historic Weather in St. Pölten — Graph

°F

St. Pölten temperature yesterday

Maximum temperature yesterday: 70 °F (at 2:50 PM)
Minimum temperature yesterday: 55 °F (at 5:50 AM)
Average temperature yesterday: 63 °F

Past Weeks' High & Low Weather Summary

 TemperatureHumidityPressure
High81 °F (Aug 18, 2:50 PM)100% (Aug 19, 7:50 AM)30.12 "Hg (Aug 19, 7:50 AM)
Low48 °F (Aug 25, 5:50 AM)34% (Aug 18, 4:50 PM)29.68 "Hg (Aug 13, 7:50 PM)
Average64 °F74%29.95 "Hg
* Reported Aug 12 5:50 PM — Aug 27 5:50 PM, St. Pölten, Weather by CustomWeather, © 2014

Note: Actual official high and low records may vary slightly from our data, if they occured in-between our weather recording intervals... More about our weather records

Advertising

St. Pölten weather history for previous 24 hours

 ConditionsComfort  
Time TempWeatherWind HumidityBarometerVisibility
5:50 PM
Aug 27
64 °FBroken clouds.7 mph60%29.98 "Hg22 mi
4:50 PM64 °FBroken clouds.6 mph60%29.98 "Hg22 mi
3:50 PM63 °FPartly sunny.13 mph64%29.98 "Hg16 mi
2:50 PM59 °FBroken clouds.10 mph82%29.95 "Hg12 mi
1:50 PM64 °FBroken clouds.8 mph68%29.92 "Hg19 mi
12:50 PM63 °FBroken clouds.8 mph77%29.92 "Hg19 mi
11:50 AM63 °FBroken clouds.16 mph77%29.86 "Hg19 mi
10:50 AM70 °FSprinkles. Broken clouds.25 mph60%29.80 "Hg12 mi
9:50 AM68 °FScattered clouds.17 mph78%29.77 "Hg19 mi
8:50 AM63 °FPartly sunny.2 mph88%29.80 "Hg9 mi
7:50 AM61 °FCool.2 mph94%29.77 "Hg6 mi
6:50 AM57 °FPassing clouds.2 mph100%29.77 "Hg1 mi
5:50 AM57 °FFog.No wind100%29.74 "Hg1 mi
10:50 PM
Aug 26
61 °FPartly cloudy.2 mph94%29.77 "Hg12 mi
9:50 PM63 °FPartly cloudy.3 mph94%29.77 "Hg12 mi
8:50 PM63 °FPartly cloudy.7 mph88%29.77 "Hg12 mi
7:50 PM63 °FBroken clouds.8 mph88%29.77 "Hg12 mi
Weather by CustomWeather, © 2014

See weather overviewHow to use our weather pages